Location: Milton
(43.5183°N, 79.8775°W)
Time: 21:44:26
(UTC+00:00)

NOAA 18 - Visible Passes

Search period start: 31 March 2023 00:00
Search period end: 10 April 2023 00:00
Orbit: 840 x 859 km, 98.9° (Epoch: 31 March)

Date Brightness Start Highest point End Pass type
(mag) Time Alt. Az. Time Alt. Az. Time Alt. Az.
31 Mar 6.1 02:37:49 39° NNE 02:37:49 39° NNE 02:41:47 10° N visible
31 Mar 7.4 04:19:48 19° WNW 04:19:48 19° WNW 04:21:55 10° NW visible
01 Apr 6.2 02:25:22 34° NE 02:25:22 34° NE 02:29:27 10° N visible
01 Apr 7.2 04:07:20 24° NW 04:07:20 24° NW 04:10:00 10° NNW visible
02 Apr 6.3 02:12:55 29° NE 02:12:55 29° NE 02:17:03 10° N visible
02 Apr 6.9 03:54:54 29° NW 03:54:54 29° NW 03:58:01 10° NNW visible
03 Apr 6.5 02:00:28 24° ENE 02:00:28 24° ENE 02:04:35 10° N visible
03 Apr 6.5 03:42:26 36° NW 03:42:26 36° NW 03:45:57 10° NNW visible
04 Apr 6.7 01:48:01 20° ENE 01:48:11 20° ENE 01:52:02 10° NNE visible
04 Apr 6.2 03:29:59 44° NW 03:29:59 44° NW 03:33:50 10° NNW visible
05 Apr 6.9 01:35:34 16° ENE 01:36:09 16° ENE 01:39:22 10° NNE visible
05 Apr 5.9 03:17:32 51° NNW 03:17:32 51° NNW 03:21:40 10° NNW visible
06 Apr 7.1 01:23:06 12° ENE 01:24:09 13° NE 01:26:27 10° NNE visible
06 Apr 5.7 03:05:05 56° N 03:05:05 56° N 03:09:27 10° NNW visible
06 Apr 7.7 04:47:02 13° WNW 04:47:02 13° WNW 04:48:13 10° NW visible
07 Apr 5.6 02:52:37 54° NNE 02:52:37 54° NNE 02:57:12 10° N visible
07 Apr 7.5 04:34:36 17° WNW 04:34:36 17° WNW 04:36:41 10° NW visible
08 Apr 5.7 02:40:10 47° NE 02:40:10 47° NE 02:44:54 10° N visible
08 Apr 7.2 04:22:08 21° WNW 04:22:08 21° WNW 04:24:55 10° NW visible
09 Apr 5.9 02:27:43 39° ENE 02:27:43 39° ENE 02:32:34 10° N visible
09 Apr 6.9 04:09:40 27° WNW 04:09:40 27° WNW 04:13:02 10° NW visible
